Rockingham, NC

5:17 AM EDT on June 28, 2017 (GMT -0400)
Rockingham

Weather History for KRCZ - October, 2011

Change the Weather History Date:

Monday, October 24, 2011

  Actual Average (KHFF) Record (KHFF)
Temperature  
Mean Temperature 58 °F -  
Max Temperature 71 °F 68 °F 87 °F (2001)
Min Temperature 44 °F 47 °F 30 °F (2006)
Degree Days  
Heating Degree Days 8    
Growing Degree Days 8 (Base 50)    
Moisture  
Dew Point 48 °F    
Average Humidity 76    
Maximum Humidity 99    
Minimum Humidity 42    
Precipitation  
Precipitation 0.00 in - - ()
Sea Level Pressure  
Sea Level Pressure 30.09 in    
Wind  
Wind Speed 2 mph (NW)    
Max Wind Speed 8 mph    
Max Gust Speed -    
Visibility 9 miles    
Events      
Averages and records for this station are not official NWS values.
T = Trace of Precipitation, MM = Missing Value Source: NWS Daily Summary

Daily Weather History Graph

Daily Weather History Graph

Search for Another Location

Airport or City:

Trip Planner

Search our weather history database for the weather conditions in past years. The results will help you decide how hot, cold, wet, or windy it might be!

Date:

Astronomy

Oct. 24, 2011 Rise Set
Actual Time 7:32 AM EDT 6:33 PM EDT
Civil Twilight 7:06 AM EDT 6:59 PM EDT
Nautical Twilight 6:36 AM EDT 7:28 PM EDT
Astronomical Twilight 6:07 AM EDT 7:58 PM EDT
Moon 4:53 AM EDT (10/24) 4:54 PM EDT (10/24)
Length of Visible Light 11h 52m
Length of Day
11h 01m
Waning Crescent, 7% of the Moon is Illuminated
Oct 24
Waning Crescent
Oct 26
New
Nov 2
First Quarter
Nov 10
Full
Nov 18
Last Quarter

Hourly Weather History & Observations

Time (EDT) Temp. Windchill Dew Point Humidity Pressure Visibility Wind Dir Wind Speed Gust Speed Precip Events Conditions
12:15 AM 50.2 °F - 48.2 °F 93% 30.12 in 10.0 mi NE 3.5 mph - N/A   Clear
12:35 AM 50.2 °F - 48.2 °F 93% 30.12 in 10.0 mi NE 3.5 mph - N/A   Clear
12:55 AM 49.8 °F - 47.7 °F 92% 30.11 in 10.0 mi Calm Calm - N/A   Clear
1:35 AM 49.3 °F - 47.5 °F 94% 30.11 in 10.0 mi Calm Calm - N/A   Clear
1:55 AM 48.7 °F - 47.3 °F 95% 30.11 in 7.0 mi Calm Calm - N/A   Clear
2:15 AM 48.4 °F - 47.1 °F 95% 30.11 in 7.0 mi Calm Calm - N/A   Clear
2:35 AM 48.0 °F - 47.1 °F 97% 30.12 in 7.0 mi Calm Calm - N/A   Clear
2:55 AM 47.5 °F - 46.8 °F 97% 30.10 in 7.0 mi Calm Calm - N/A   Clear
3:15 AM 47.8 °F - 46.9 °F 97% 30.09 in 10.0 mi North 3.5 mph - N/A   Clear
3:35 AM 46.9 °F - 46.0 °F 97% 30.08 in 10.0 mi NNE 3.5 mph - N/A   Clear
3:55 AM 46.8 °F - 46.0 °F 97% 30.08 in 10.0 mi NNE 4.6 mph - N/A   Clear
4:15 AM 46.6 °F - 46.0 °F 98% 30.08 in 10.0 mi Calm Calm - N/A   Clear
4:35 AM 46.6 °F - 46.0 °F 98% 30.08 in 10.0 mi Calm Calm - N/A   Clear
4:55 AM 46.6 °F - 46.0 °F 98% 30.08 in 10.0 mi NE 3.5 mph - N/A   Clear
5:15 AM 46.0 °F - 45.5 °F 98% 30.08 in 10.0 mi Calm Calm - N/A   Clear
5:35 AM 46.2 °F 45.0 °F 45.5 °F 97% 30.08 in 4.0 mi NNW 3.5 mph - N/A   Clear
5:55 AM 45.9 °F 44.6 °F 45.3 °F 98% 30.08 in 7.0 mi North 3.5 mph - N/A   Clear
6:15 AM 46.0 °F - 45.3 °F 97% 30.08 in 7.0 mi Calm Calm - N/A   Clear
6:35 AM 45.0 °F - 44.2 °F 97% 30.08 in 5.0 mi Calm Calm - N/A   Clear
6:55 AM 44.2 °F - 43.9 °F 99% 30.08 in 7.0 mi Calm Calm - N/A   Clear
7:15 AM 44.4 °F - 44.1 °F 99% 30.09 in 7.0 mi Calm Calm - N/A   Clear
7:35 AM 44.4 °F - 44.1 °F 99% 30.10 in 5.0 mi Calm Calm - N/A   Clear
7:55 AM 44.1 °F - 43.5 °F 98% 30.10 in 7.0 mi Calm Calm - N/A   Clear
8:15 AM 44.1 °F - 43.5 °F 98% 30.11 in 7.0 mi Calm Calm - N/A   Clear
8:35 AM 46.4 °F - 45.9 °F 98% 30.12 in 7.0 mi Calm Calm - N/A   Clear
9:15 AM 49.6 °F - 47.3 °F 92% 30.14 in 10.0 mi Calm Calm - N/A   Clear
9:35 AM 51.8 °F - 48.7 °F 89% 30.14 in 10.0 mi Calm Calm - N/A   Clear
9:55 AM 54.1 °F - 49.6 °F 85% 30.15 in 10.0 mi Calm Calm - N/A   Clear
10:15 AM 55.9 °F - 50.7 °F 83% 30.14 in 7.0 mi Calm Calm - N/A   Clear
10:35 AM 58.8 °F - 52.5 °F 80% 30.13 in 10.0 mi Calm Calm - N/A   Clear
11:15 AM 63.1 °F - 51.8 °F 66% 30.13 in 10.0 mi North 4.6 mph - N/A   Clear
11:35 AM 64.2 °F - 50.7 °F 61% 30.12 in 10.0 mi Calm Calm - N/A   Clear
11:55 AM 65.1 °F - 50.7 °F 60% 30.12 in 10.0 mi Calm Calm - N/A   Clear
12:15 PM 65.8 °F - 50.4 °F 57% 30.11 in 10.0 mi WNW 4.6 mph - N/A   Clear
12:35 PM 66.6 °F - 49.6 °F 54% 30.10 in 10.0 mi Calm Calm - N/A   Clear
12:55 PM 66.9 °F - 49.1 °F 53% 30.09 in 10.0 mi Calm Calm - N/A   Clear
1:15 PM 68.0 °F - 50.2 °F 53% 30.08 in 10.0 mi WNW 6.9 mph - N/A   Clear
1:35 PM 68.4 °F - 50.4 °F 53% 30.07 in 10.0 mi Calm Calm - N/A   Clear
1:55 PM 69.1 °F - 49.8 °F 50% 30.07 in 10.0 mi NNW 4.6 mph - N/A   Clear
2:35 PM 70.0 °F - 48.7 °F 47% 30.05 in 10.0 mi NW 4.6 mph - N/A   Scattered Clouds
2:55 PM 70.5 °F - 48.6 °F 46% 30.05 in 10.0 mi WNW 8.1 mph - N/A   Scattered Clouds
3:35 PM 71.4 °F - 47.3 °F 42% 30.05 in 10.0 mi WNW 8.1 mph - N/A   Clear
3:55 PM 71.6 °F - 47.8 °F 43% 30.05 in 10.0 mi West 5.8 mph - N/A   Clear
4:15 PM 71.8 °F - 48.7 °F 44% 30.05 in 10.0 mi West 8.1 mph - N/A   Clear
4:35 PM 71.6 °F - 48.6 °F 44% 30.05 in 10.0 mi NNW 5.8 mph - N/A   Clear
4:55 PM 71.8 °F - 49.3 °F 45% 30.05 in 10.0 mi WNW 4.6 mph - N/A   Clear
5:15 PM 71.4 °F - 49.1 °F 45% 30.05 in 10.0 mi NW 3.5 mph - N/A   Clear
5:35 PM 70.9 °F - 49.1 °F 46% 30.05 in 10.0 mi Calm Calm - N/A   Clear
5:55 PM 70.3 °F - 49.8 °F 48% 30.04 in 10.0 mi Calm Calm - N/A   Clear
6:15 PM 68.9 °F - 50.9 °F 53% 30.04 in 10.0 mi Calm Calm - N/A   Clear
6:35 PM 66.9 °F - 52.0 °F 59% 30.05 in 10.0 mi Calm Calm - N/A   Clear
6:55 PM 64.6 °F - 53.4 °F 67% 30.06 in 10.0 mi Calm Calm - N/A   Clear
7:15 PM 63.3 °F - 52.9 °F 69% 30.06 in 10.0 mi Calm Calm - N/A   Clear
7:35 PM 61.7 °F - 52.3 °F 71% 30.07 in 10.0 mi Calm Calm - N/A   Clear
8:15 PM 59.9 °F - 51.6 °F 74% 30.07 in 10.0 mi SW 3.5 mph - N/A   Clear
8:35 PM 59.0 °F - 51.8 °F 77% 30.07 in 10.0 mi SW 3.5 mph - N/A   Clear
8:55 PM 60.3 °F - 51.1 °F 72% 30.08 in 10.0 mi SW 3.5 mph - N/A   Clear
9:15 PM 59.5 °F - 50.9 °F 73% 30.08 in 10.0 mi Calm Calm - N/A   Clear
9:35 PM 58.5 °F - 50.9 °F 76% 30.09 in 10.0 mi WSW 3.5 mph - N/A   Clear
10:15 PM 58.1 °F - 51.1 °F 77% 30.09 in 10.0 mi Calm Calm - N/A   Clear
10:35 PM 58.5 °F - 51.3 °F 77% 30.10 in 10.0 mi Calm Calm - N/A   Clear
11:35 PM 54.5 °F - 52.0 °F 91% 30.11 in 10.0 mi Calm Calm - N/A   Clear